Weather Roundup
Issued by NWS Springfield, MO

Home | Current Version | Previous Version | Text Only | Print | Product List | Glossary On
Versions: 1 2 3 4 5 6 7 8 9 10 11 12 13 14 15 16 17 18 19 20 21 22 23 24 25 26 27 28 29 30 31 32 33 34 35 36 37 38 39 40 41 42 43 44 45 46 47 48 49 50
059
NZUS99 KSGF 092207
HRRSGF

HOURLY WEATHER
NATIONAL WEATHER SERVICE SPRINGFIELD MO
400 PM CST TUE FEB 09 2016

......SGF CWA......

CITY           SKY/WX    TMP DP  RH WIND       PRES   REMARKS
SPRINGFIELD    SUNNY     33   8  35 NW20G30   30.12R WCI  21
JOPLIN         SUNNY     36   6  28 NW21G26   30.20R WCI  25
WEST PLAINS    SUNNY     33   7  33 NW18G25   30.07R WCI  22
ROLLA          CLOUDY    26  11  52 NW14G26   30.06R WCI  14
OSAGE BEACH    PTSUNNY   28   9  43 NW14G24   30.12R WCI  17
BRANSON        SUNNY     32   5  32 NW17G23   30.12R WCI  21

......SURROUNDING SGF CWA......

CITY           SKY/WX    TMP DP  RH WIND       PRES   REMARKS
CHANUTE        CLOUDY    37   7  28 NW16G25   30.23R WCI  28
PARSONS        CLOUDY    40   9  28 NW17G26   30.23R WCI  31
COFFEYVILLE    SUNNY     40   8  26 N29G35    30.24R WCI  29
EMPORIA        SUNNY     34   7  32 N22G30    30.24S WCI  22
GROVE OK       CLOUDY    41  12  30 NW17G24   30.22R
ROGERS AR      SUNNY     36   7  29 NW20G25   30.15R WCI  25
SILOAM SPRINGS CLOUDY    37   9  30 NW21G31   30.18S WCI  27
HARRISON AR    SUNNY     35   6  29 NW16G35   30.11R WCI  25
NEAR YELLVILLE SUNNY    N/A N/A N/A NW18G35   30.08S

......KANSAS AND MISSOURI......

CITY           SKY/WX    TMP DP  RH WIND       PRES   REMARKS
KANSAS CTY INT MOSUNNY   28   4  35 NW18G29   30.20R WCI  15
DOWNTOWN KC    SUNNY     30   4  33 NW13G24   30.21R WCI  20
COLUMBIA       CLOUDY    26   9  48 NW21      30.10R WCI  12
SEDALIA        SUNNY     29  12  49 NW20G26   30.16R WCI  16
ST JOSEPH      SUNNY     27   2  34 NW22G29   30.23R WCI  13
ST LOUIS       FLURRIES  26  13  57 NW15G25   30.05R WCI  14
SPIRIT OF STL  PTSUNNY   27   9  46 NW22G29   30.05R WCI  13
KIRKSVILLE     PTSUNNY   24   7  48 NW18G26   30.09R WCI  10
WICHITA        MOSUNNY   42  16  34 N21G26    30.27R
TOPEKA         SUNNY     30   1  29 NW23G30   30.26R WCI  17
OLATHE         SUNNY     27   3  35 NW20      30.20R WCI  13

......TENNESSEE......

CITY           SKY/WX    TMP DP  RH WIND       PRES   REMARKS
MEMPHIS        MOSUNNY   37  13  37 N16G24    30.07R WCI  28
NASHVILLE      LGT SNOW  26  17  68 N10       30.00R WCI  16

......ARKANSAS.......

CITY           SKY/WX    TMP DP  RH WIND       PRES   REMARKS
FAYETTEVILLE   SUNNY     37   8  30 NW21G26   30.17R WCI  26
FT SMITH       SUNNY     47   4  17 NW17G25   30.19R
LITTLE ROCK    MOSUNNY   50   5  16 NW18G33   30.08R

......OKLAHOMA.......

CITY           SKY/WX    TMP DP  RH WIND       PRES   REMARKS
TULSA          CLOUDY    46  14  27 N31G37    30.22R
PONCA CITY     CLOUDY    43  17  35 N20G28    30.28R
MCALESTER      LGT RAIN  50  18  28 N23G32    30.23R
OKLAHOMA CITY  MOSUNNY   50  21  32 N21G30    30.27S

......IOWA............

CITY           SKY/WX    TMP DP  RH WIND       PRES   REMARKS
DES MOINES     MOSUNNY   18   5  57 NW20G29   30.13S WCI   2
QUAD CITIES    CLOUDY    16   5  62 NW16G29   30.00R WCI   1

......ILLINOIS........

CITY           SKY/WX    TMP DP  RH WIND       PRES   REMARKS
QUINCY         SUNNY     20   7  57 NW24      30.05R WCI   3
CHICAGO        FLURRIES  17   7  64 NW15      29.87R WCI   2




USA.gov is the U.S. government's official web portal to all federal, state and local government web resources and services.